SCP
1 1 1 2 3 3 3 3 2 2 2 2 3 4 4 2 1 1 1 0 0 0 0 0 0 0 0 0 0 0 0 0 0 0 1 1 1 1
1 1 1 2 3 3 3 3 3 2 2 2 3 4 4 2 1 1 1 0 0 0 0 0 0 0 0 0 0 0 0 0 0 0 0 1 1 1
1 1 1 1 2 3 4 4 3 2 2 2 3 4 3 2 2 1 1 0 0 0 0 0 0 0 0 0 0 0 0 0 0 0 0 0 0 0
0 0 1 1 1 2 2 3 3 2 2 2 3 3 3 2 2 1 1 0 0 0 0 0 0 0 0 0 0 0 0 0 0 0 0 0 0 0
1 1 1 1 1 1 1 2 2 2 2 2 2 2 2 2 2 1 1 1 0 0 0 0 0 0 0 0 0 0 0 0 0 0 0 0 0 0
1 1 1 1 1 1 1 1 1 1 1 2 2 2 2 2 1 1 1 1 0 0 0 0 0 0 0 0 0 0 0 0 0 0 0 0 0 0
1 1 1 1 1 1 1 1 1 1 1 1 1 1 1 1 1 1 1 1 1 0 0 0 0 0 0 0 0 0 0 0 0 0 0 0 0 0
1 1 1 0 0 0 0 1 1 1 1 1 1 1 1 1 1 1 1 1 1 1 0 0 0 0 0 0 0 0 0 0 0 0 0 0 0 0
1 1 1 0 0 0 0 0 0 1 1 2 2 1 1 1 1 1 1 1 1 1 0 0 0 0 0 0 0 0 0 0 0 0 0 0 0 0
1 1 1 1 0 0 0 0 0 0 1 1 1 1 1 1 1 1 1 1 1 1 1 0 0 0 0 0 0 0 0 0 0 0 0 0 0 0
1 1 1 1 0 0 0 0 0 0 0 1 1 1 1 1 1 1 1 1 1 1 1 0 0 0 0 0 0 0 0 0 0 0 0 0 0 0
0 0 1 0 0 0 0 0 0 0 0 0 0 0 0 0 0 1 1 1 1 1 1 1 0 0 0 0 0 0 0 0 0 0 0 0 0 0
0 0 0 0 0 0 0 0 0 0 0 1 1 1 1 1 1 1 1 1 1 1 1 1 0 0 0 0 0 0 0 0 0 0 0 0 0 0
0 0 0 0 0 0 0 0 0 0 0 1 1 1 1 1 1 1 1 1 1 1 1 1 0 0 0 0 0 0 0 0 0 0 0 0 0 0
0 0 0 0 0 0 0 0 0 0 0 0 0 1 1 1 1 1 1 1 1 1 1 0 0 0 0 0 0 0 0 0 0 0 0 0 0 0
0 0 0 0 0 0 0 0 0 0 0 0 0 0 1 1 1 1 1 1 1 1 1 0 0 0 0 0 0 0 0 0 0 0 0 0 0 0
0 0 0 0 0 0 0 0 0 0 0 0 0 0 1 1 1 1 1 1 1 1 1 1 0 0 0 0 0 0 0 0 0 0 0 0 0 0
0 0 0 0 0 0 0 0 0 0 0 0 0 0 0 1 1 1 1 1 1 0 0 0 0 0 0 0 0 0 0 0 0 0 0 0 0 0
0 0 0 0 0 0 0 0 0 0 0 1 0 0 0 1 1 1 1 0 0 0 0 0 0 0 0 0 0 0 0 0 0 0 0 0 0 0
0 0 0 0 0 0 0 0 0 0 1 1 1 1 1 1 1 1 1 0 0 0 0 0 0 0 0 0 0 0 0 0 0 0 0 0 0 0
0 0 0 0 0 0 0 0 0 0 1 1 1 1 1 1 1 1 0 0 0 0 0 0 0 0 0 0 0 0 0 0 0 0 0 0 0 0
0 0 0 0 0 0 0 0 0 1 1 1 1 1 1 1 1 1 0 0 0 0 0 0 0 0 0 0 0 0 0 0 0 0 0 0 0 0
0 0 0 0 0 0 0 0 0 1 1 1 1 1 1 1 1 0 0 0 0 0 0 0 0 0 0 0 0 0 0 0 0 0 0 0 0 0
Wind_Speed
3 3 2 3 2 3 3 2 2 2 3 2 2 5 6 7 9 6 7 7 7 5 5 4 5 4 4 4 4 5 6 7 8 9 10 11 12 14
3 3 3 3 2 2 2 2 2 2 3 3 3 5 6 8 8 7 8 10 8 7 7 6 6 5 5 4 3 3 3 4 5 7 7 8 9 10
5 5 5 4 3 2 2 2 2 2 3 2 2 4 6 7 7 7 8 6 6 7 8 8 7 7 6 5 4 3 2 2 2 3 4 5 6 7
7 6 6 5 5 3 2 2 2 2 2 3 2 4 5 7 7 7 7 7 7 8 9 9 9 8 8 7 6 5 4 3 2 1 1 2 3 4
8 7 7 7 6 4 4 4 2 2 2 2 3 3 4 6 7 6 7 6 7 8 9 10 10 10 9 8 8 7 7 6 5 4 3 2 2 1
8 8 7 7 7 7 6 5 4 3 3 3 3 3 5 7 7 7 6 5 5 6 6 7 9 11 10 9 9 9 8 8 7 7 6 6 6 5
9 8 8 9 9 8 7 6 6 4 4 4 4 4 4 7 8 7 7 6 5 5 5 5 5 5 6 7 9 9 9 9 9 9 9 9 9 9
8 8 9 9 10 11 9 8 7 6 5 5 4 5 6 6 6 7 8 7 5 5 5 4 4 4 4 4 7 9 9 10 10 10 11 11 11 11
8 8 9 11 11 10 11 11 10 10 9 6 5 5 5 5 7 9 9 9 5 7 6 4 4 5 5 6 9 9 10 10 11 11 12 13 13 13
8 9 9 8 8 8 9 10 9 9 11 8 7 6 4 4 6 7 8 7 6 6 6 4 4 5 6 5 7 9 10 10 11 12 13 14 14 14
10 10 10 9 10 10 8 7 7 7 11 13 11 10 9 8 6 5 7 9 7 6 4 4 6 5 4 4 5 8 9 9 10 11 11 12 12 12
7 8 11 12 12 13 8 7 7 6 6 8 9 9 8 8 11 8 8 9 8 6 6 5 8 6 5 4 4 4 5 6 8 8 8 6 5 5
6 6 7 13 14 15 11 7 7 5 4 4 6 6 6 6 8 9 8 8 9 5 8 7 8 6 5 6 4 5 5 4 4 3 3 4 4 5
5 5 5 10 14 15 11 8 8 6 3 3 4 6 6 7 7 8 9 8 6 6 10 8 7 7 7 7 5 6 5 5 5 4 4 4 5 8
3 3 4 7 10 10 11 10 8 5 5 5 5 5 6 7 7 7 8 7 5 6 9 7 6 7 7 6 7 7 6 5 5 4 4 4 4 4
6 5 7 8 6 6 8 7 6 6 6 6 5 4 4 6 6 6 7 7 6 4 5 6 6 8 6 7 8 8 7 6 6 5 5 4 4 4
5 5 5 6 6 6 6 7 8 7 7 5 5 4 4 5 6 7 7 8 7 7 6 5 5 5 6 8 8 8 6 6 6 5 5 4 4 4
4 5 6 6 7 8 8 8 8 8 7 6 5 5 5 6 6 7 7 8 8 8 7 7 6 5 5 4 7 8 6 5 6 6 5 5 4 4
5 6 6 6 7 7 6 7 7 8 7 7 6 6 6 6 7 8 9 9 8 9 8 7 8 8 9 8 5 7 7 6 6 5 4 4 5 5
6 6 6 6 7 6 6 6 6 6 6 7 7 7 7 7 8 9 9 10 10 9 8 7 7 7 8 8 5 5 8 8 7 6 5 3 3 5
7 7 6 6 6 6 6 6 6 6 7 7 7 7 7 7 8 9 9 12 10 9 10 9 7 8 5 6 7 5 4 5 7 6 6 4 4 4
5 5 5 5 5 5 5 5 5 5 6 6 6 7 8 8 9 10 10 10 9 9 8 7 6 6 5 7 8 8 6 4 4 6 5 4 4 6
4 4 4 4 4 4 4 5 6 5 5 6 6 6 7 8 8 8 9 9 9 9 9 7 6 4 5 6 8 7 9 7 5 4 3 5 8 8
Wind_Direction
247 254 266 280 284 287 281 263 250 227 208 195 156 146 130 122 147 139 128 126 126 128 135 149 156 159 166 178 194 207 215 223 229 232 232 233 235 237
230 237 240 257 278 274 279 274 254 245 236 195 175 154 147 140 147 127 120 122 110 112 112 116 120 123 127 134 146 166 191 210 224 230 232 235 238 239
230 228 229 232 239 260 269 275 265 250 246 240 149 138 137 132 131 130 140 132 113 108 108 105 103 103 106 107 108 114 130 170 213 227 234 238 241 241
220 225 225 226 223 221 229 244 245 241 233 229 179 159 154 146 148 155 147 129 121 115 110 104 100 96 94 94 92 89 88 90 95 126 202 233 241 247
212 215 221 221 222 216 212 218 219 232 211 224 208 178 163 160 154 146 123 123 124 127 115 106 103 98 93 90 90 88 85 82 80 78 77 72 56 1
215 212 215 218 218 214 217 213 213 215 216 225 222 194 178 169 159 148 143 142 137 134 116 116 112 100 94 90 91 91 90 88 84 81 79 75 68 61
218 214 217 218 220 214 218 203 203 203 206 212 215 209 194 175 172 164 157 145 133 139 138 141 134 115 101 92 88 91 92 90 87 85 82 79 75 71
220 213 220 221 221 211 211 204 198 206 208 204 210 212 204 190 174 166 158 155 156 163 151 142 134 114 100 86 92 95 94 93 92 90 88 85 81 76
226 218 223 224 208 204 207 209 211 218 215 205 211 217 204 193 184 176 171 172 156 155 145 132 120 103 93 91 97 99 98 97 97 97 94 89 84 79
228 218 215 230 224 206 207 208 208 213 215 215 218 217 218 204 196 184 168 155 130 146 149 132 132 116 106 98 99 104 104 103 103 103 100 96 90 82
234 226 212 216 219 207 208 213 212 216 217 217 211 210 206 205 191 171 167 162 153 161 170 134 137 125 117 112 109 107 108 109 111 111 110 109 106 94
229 233 223 211 206 200 202 207 214 218 226 213 213 215 210 204 195 189 180 173 156 159 176 147 151 146 133 131 142 142 119 112 118 121 123 124 122 109
222 221 220 207 199 196 198 201 211 218 223 219 206 206 204 202 196 194 188 181 173 164 166 156 161 163 138 142 155 164 155 155 153 142 135 130 144 138
225 225 211 195 195 193 195 197 192 199 223 225 216 208 203 201 196 191 189 187 187 166 162 160 158 167 143 146 148 160 165 171 170 164 158 140 124 132
245 226 186 176 182 193 203 192 183 200 217 225 224 218 205 197 182 175 174 165 160 161 160 163 154 155 150 150 148 157 163 173 172 162 164 165 157 147
229 207 174 169 180 192 185 193 202 214 214 219 220 220 200 181 175 166 164 157 148 146 156 159 160 157 154 149 149 157 161 162 168 168 165 163 165 161
199 191 190 182 196 206 201 194 202 210 218 218 213 212 193 180 173 167 162 160 161 160 159 156 156 151 151 149 153 161 161 155 160 162 158 163 173 167
200 207 207 206 208 211 209 205 204 206 206 203 207 201 191 181 172 168 168 166 163 160 162 161 154 142 137 140 158 160 162 156 156 161 168 160 167 165
211 220 214 213 218 220 218 214 211 205 198 195 197 195 186 178 173 170 169 167 164 162 162 162 163 160 161 162 172 173 162 153 151 163 184 173 165 161
224 227 219 214 216 218 219 219 215 205 196 194 193 188 181 179 175 172 171 170 163 159 158 166 174 174 169 160 150 162 167 155 156 168 185 165 121 135
219 225 225 223 217 213 217 216 208 201 193 189 187 180 179 178 174 171 170 166 160 160 165 173 179 172 148 131 140 145 140 147 158 168 174 159 150 153
238 229 225 225 221 215 211 210 206 195 186 183 180 176 178 177 172 169 167 166 164 161 160 160 161 168 159 154 157 153 143 136 130 140 146 150 162 179
240 236 228 223 218 210 207 205 200 189 181 178 174 173 172 170 169 167 166 163 160 157 153 155 160 167 166 159 153 154 154 156 158 156 155 145 129 123